Haleyville, AL

1:31 AM CDT on March 28, 2017 (GMT -0500)
Haleyville

Weather History for K1M4 - November, 2012

Change the Weather History Date:

Monday, November 5, 2012

  Actual Average (KJFX) Record (KJFX)
Temperature  
Mean Temperature 46 °F -  
Max Temperature 59 °F 65 °F 82 °F (2015)
Min Temperature 34 °F 38 °F 18 °F (1991)
Degree Days  
Heating Degree Days 18    
Moisture  
Dew Point 39 °F    
Average Humidity 77    
Maximum Humidity 100    
Minimum Humidity 41    
Precipitation  
Precipitation 0.06 in - - ()
Sea Level Pressure  
Sea Level Pressure 30.09 in    
Wind  
Wind Speed 1 mph (NE)    
Max Wind Speed 7 mph    
Max Gust Speed -    
Visibility 9 miles    
Events Rain    
Averages and records for this station are not official NWS values.
T = Trace of Precipitation, MM = Missing Value Source: NWS Daily Summary

Daily Weather History Graph

Daily Weather History Graph

Search for Another Location

Airport or City:

Trip Planner

Search our weather history database for the weather conditions in past years. The results will help you decide how hot, cold, wet, or windy it might be!

Date:

Astronomy

Nov. 05, 2012 Rise Set
Actual Time 6:14 AM CST 4:53 PM CST
Civil Twilight 5:48 AM CST 5:19 PM CST
Nautical Twilight 5:18 AM CST 5:49 PM CST
Astronomical Twilight 4:48 AM CST 6:18 PM CST
Moon 10:29 PM CST (11/5) 11:33 AM CST (11/5)
Length of Visible Light 11h 31m
Length of Day
10h 38m
Waning Gibbous, 62% of the Moon is Illuminated
Nov 5
Waning Gibbous
Nov 6
Last Quarter
Nov 13
New
Nov 20
First Quarter
Nov 28
Full

Hourly Weather History & Observations

Time (CST) Temp. Windchill Dew Point Humidity Pressure Visibility Wind Dir Wind Speed Gust Speed Precip Events Conditions
12:56 AM 34.9 °F - 34.0 °F 97% 30.17 in 9.0 mi Calm Calm - N/A   Clear
1:56 AM 34.0 °F - 32.9 °F 96% 30.17 in 7.0 mi Calm Calm - N/A   Clear
2:56 AM 34.9 °F - 34.0 °F 97% 30.15 in 9.0 mi Calm Calm - N/A   Clear
3:56 AM 37.9 °F 33.5 °F 34.9 °F 89% 30.15 in 10.0 mi NNE 5.8 mph - N/A   Clear
5:56 AM 37.9 °F - 34.0 °F 86% 30.15 in 10.0 mi Calm Calm - N/A   Clear
6:56 AM 37.9 °F - 36.0 °F 93% 30.16 in 10.0 mi Calm Calm - N/A   Clear
7:56 AM 41.9 °F - 36.9 °F 82% 30.16 in 10.0 mi Calm Calm - N/A   Clear
8:56 AM 48.9 °F - 36.9 °F 63% 30.15 in 10.0 mi Variable 5.8 mph - N/A   Clear
9:56 AM 52.0 °F - 36.0 °F 54% 30.14 in 10.0 mi East 6.9 mph - N/A   Partly Cloudy
10:56 AM 55.9 °F - 34.9 °F 45% 30.12 in 10.0 mi Calm Calm - N/A   Clear
11:56 AM 57.9 °F - 36.0 °F 44% 30.09 in 10.0 mi Calm Calm - N/A   Clear
12:56 PM 59.9 °F - 36.0 °F 41% 30.07 in 10.0 mi Calm Calm - N/A   Partly Cloudy
1:56 PM 59.9 °F - 37.9 °F 44% 30.05 in 10.0 mi Calm Calm - N/A   Clear
2:56 PM 57.9 °F - 37.9 °F 47% 30.05 in 10.0 mi Calm Calm - N/A   Mostly Cloudy
3:56 PM 57.9 °F - 38.8 °F 49% 30.04 in 10.0 mi Calm Calm - N/A   Mostly Cloudy
4:56 PM 52.9 °F - 41.0 °F 64% 30.06 in 10.0 mi Calm Calm - N/A   Scattered Clouds
5:56 PM 50.9 °F - 41.0 °F 69% 30.07 in 10.0 mi Calm Calm - N/A   Scattered Clouds
6:36 PM 48.2 °F - 44.6 °F 87% 30.02 in 7.0 mi Calm Calm - 0.01 in Rain Rain
6:56 PM 46.9 °F - 43.9 °F 89% 30.06 in 8.0 mi Calm Calm - 0.01 in Rain Light Rain
7:56 PM 46.9 °F - 45.0 °F 93% 30.05 in 6.0 mi Calm Calm - 0.01 in Rain Light Rain
8:13 PM 46.4 °F - 44.6 °F 93% 30.01 in 5.0 mi Calm Calm - 0.01 in Rain Light Rain
8:56 PM 45.9 °F - 45.0 °F 97% 30.05 in 6.0 mi Calm Calm - 0.02 in Rain Light Rain
9:56 PM 45.9 °F - 43.9 °F 93% 30.06 in 10.0 mi Calm Calm - 0.00 in   Overcast
10:23 PM 46.4 °F - 42.8 °F 87% 30.01 in 7.0 mi Calm Calm - 0.00 in Rain Light Rain
10:56 PM 45.0 °F - 43.9 °F 96% 30.04 in 6.0 mi Calm Calm - 0.02 in Rain Light Rain
11:05 PM 44.6 °F - 44.6 °F 100% 30.01 in 7.0 mi Calm Calm - 0.00 in Rain Light Rain
11:56 PM 45.0 °F - 43.0 °F 93% 30.04 in 10.0 mi Calm Calm - 0.00 in Rain Light Rain